Meteo pe oră la Abakumy

Astăzi, 26 Iulie, Luni

Timp Temperatura Precipitaţii Vânt Presiune Umiditate
00:00 +18°C° 0 mm 2 m/s 754 mmHg 83%
01:00 +18°C° 0 mm 2 m/s 754 mmHg 85%
02:00 +17°C° 0 mm 2 m/s 754 mmHg 86%
03:00 +17°C° 0 mm 2 m/s 755 mmHg 87%
04:00 +17°C° 0 mm 2 m/s 755 mmHg 87%
05:00 +17°C° 0 mm 2 m/s 755 mmHg 87%
06:00 +19°C° 0 mm 2 m/s 755 mmHg 80%
07:00 +21°C° 0 mm 2 m/s 755 mmHg 72%
08:00 +24°C° 0 mm 2 m/s 755 mmHg 64%
09:00 +26°C° 0 mm 2 m/s 755 mmHg 57%
10:00 +28°C° 0 mm 2 m/s 755 mmHg 51%
11:00 +29°C° 0 mm 2 m/s 755 mmHg 44%
12:00 +29°C° 0 mm 2 m/s 755 mmHg 44%
13:00 +29°C° 0 mm 2 m/s 754 mmHg 43%
14:00 +29°C° 0 mm 2 m/s 754 mmHg 43%
15:00 +29°C° 0 mm 2 m/s 754 mmHg 43%
16:00 +28°C° 0 mm 2 m/s 754 mmHg 44%
17:00 +28°C° 0 mm 2 m/s 754 mmHg 45%
18:00 +27°C° 0 mm 2 m/s 754 mmHg 48%
19:00 +25°C° 0 mm 1 m/s 754 mmHg 52%
20:00 +24°C° 0 mm 1 m/s 754 mmHg 56%
21:00 +23°C° 0 mm 1 m/s 754 mmHg 59%
22:00 +22°C° 0 mm 1 m/s 754 mmHg 62%
23:00 +20°C° 0 mm 2 m/s 754 mmHg 65%

Mâine, 27 Iulie, Marţi

Timp Temperatura Precipitaţii Vânt Presiune Umiditate
00:00 +20°C° 0 mm 2 m/s 754 mmHg 67%
01:00 +19°C° 0 mm 2 m/s 754 mmHg 70%
02:00 +19°C° 0 mm 2 m/s 754 mmHg 72%
03:00 +19°C° 0 mm 2 m/s 754 mmHg 74%
04:00 +19°C° 0 mm 2 m/s 754 mmHg 76%
05:00 +18°C° 0 mm 2 m/s 754 mmHg 78%
06:00 +20°C° 0 mm 2 m/s 754 mmHg 71%
07:00 +22°C° 0 mm 3 m/s 754 mmHg 64%
08:00 +25°C° 0 mm 3 m/s 754 mmHg 56%
09:00 +27°C° 0 mm 3 m/s 754 mmHg 52%
10:00 +28°C° 0 mm 3 m/s 754 mmHg 47%
11:00 +30°C° 0 mm 4 m/s 753 mmHg 43%
12:00 +30°C° 0 mm 4 m/s 753 mmHg 41%
13:00 +32°C° 0 mm 4 m/s 753 mmHg 39%
14:00 +33°C° 0 mm 5 m/s 753 mmHg 37%
15:00 +33°C° 0 mm 5 m/s 752 mmHg 39%
16:00 +32°C° 0 mm 4 m/s 752 mmHg 41%
17:00 +32°C° 0 mm 4 m/s 752 mmHg 42%
18:00 +29°C° 0 mm 4 m/s 751 mmHg 47%
19:00 +28°C° 0 mm 4 m/s 751 mmHg 52%
20:00 +26°C° 0 mm 4 m/s 751 mmHg 58%
21:00 +25°C° 0.2 mm 4 m/s 751 mmHg 64%
22:00 +22°C° 0.2 mm 3 m/s 751 mmHg 70%
23:00 +21°C° 0.2 mm 3 m/s 751 mmHg 77%

Poimâine, 28 Iulie, Miercuri

Timp Temperatura Precipitaţii Vânt Presiune Umiditate
00:00 +21°C° 0.4 mm 3 m/s 751 mmHg 80%
01:00 +20°C° 0.4 mm 3 m/s 751 mmHg 84%
02:00 +19°C° 0.4 mm 3 m/s 750 mmHg 87%
03:00 +20°C° 0.4 mm 3 m/s 750 mmHg 89%
04:00 +20°C° 0.4 mm 3 m/s 750 mmHg 90%
05:00 +20°C° 0.4 mm 3 m/s 750 mmHg 92%
06:00 +20°C° 0.6 mm 3 m/s 750 mmHg 90%
07:00 +21°C° 0.6 mm 3 m/s 750 mmHg 89%
08:00 +23°C° 0.6 mm 2 m/s 749 mmHg 87%
09:00 +25°C° 0.1 mm 3 m/s 750 mmHg 76%
10:00 +27°C° 0.1 mm 3 m/s 750 mmHg 66%
11:00 +29°C° 0.1 mm 4 m/s 750 mmHg 55%
12:00 +30°C° 0 mm 3 m/s 749 mmHg 52%
13:00 +30°C° 0 mm 3 m/s 749 mmHg 49%
14:00 +31°C° 0 mm 3 m/s 749 mmHg 45%
15:00 +31°C° 0 mm 3 m/s 749 mmHg 45%
16:00 +31°C° 0 mm 3 m/s 749 mmHg 46%
17:00 +31°C° 0 mm 3 m/s 748 mmHg 46%
18:00 +29°C° 0 mm 3 m/s 749 mmHg 53%
19:00 +27°C° 0 mm 2 m/s 749 mmHg 59%
20:00 +24°C° 0 mm 1 m/s 749 mmHg 66%
21:00 +24°C° 0 mm 1 m/s 749 mmHg 67%
22:00 +23°C° 0 mm 1 m/s 749 mmHg 68%
23:00 +23°C° 0 mm 1 m/s 749 mmHg 69%

29 Iulie, Joi

Timp Temperatura Precipitaţii Vânt Presiune Umiditate
00:00 +23°C° 0 mm 1 m/s 749 mmHg 70%
01:00 +22°C° 0 mm 1 m/s 749 mmHg 72%
02:00 +22°C° 0 mm 1 m/s 748 mmHg 73%
03:00 +22°C° 0 mm 1 m/s 748 mmHg 74%
04:00 +21°C° 0 mm 1 m/s 748 mmHg 75%
05:00 +21°C° 0 mm 1 m/s 748 mmHg 76%
06:00 +23°C° 0 mm 1 m/s 748 mmHg 70%
07:00 +25°C° 0 mm 1 m/s 748 mmHg 64%
08:00 +27°C° 0 mm 1 m/s 748 mmHg 58%
09:00 +28°C° 0 mm 2 m/s 748 mmHg 53%
10:00 +30°C° 0 mm 3 m/s 748 mmHg 48%
11:00 +31°C° 0 mm 3 m/s 747 mmHg 42%
12:00 +33°C° 0 mm 4 m/s 747 mmHg 42%
13:00 +34°C° 0 mm 4 m/s 747 mmHg 41%
14:00 +34°C° 0 mm 5 m/s 746 mmHg 41%
15:00 +33°C° 0.3 mm 5 m/s 746 mmHg 49%
16:00 +30°C° 0.3 mm 5 m/s 745 mmHg 57%
17:00 +28°C° 0.3 mm 5 m/s 745 mmHg 66%
18:00 +26°C° 0.7 mm 4 m/s 746 mmHg 74%
19:00 +25°C° 0.7 mm 4 m/s 746 mmHg 83%
20:00 +22°C° 0.7 mm 3 m/s 747 mmHg 91%
21:00 +21°C° 0 mm 3 m/s 747 mmHg 93%
22:00 +21°C° 0 mm 2 m/s 747 mmHg 94%
23:00 +20°C° 0 mm 2 m/s 748 mmHg 96%

30 Iulie, Vineri

Timp Temperatura Precipitaţii Vânt Presiune Umiditate
00:00 +20°C° 0 mm 2 m/s 748 mmHg 96%
01:00 +19°C° 0 mm 2 m/s 748 mmHg 96%
02:00 +19°C° 0 mm 2 m/s 748 mmHg 95%
03:00 +18°C° 0 mm 2 m/s 748 mmHg 94%
04:00 +18°C° 0 mm 2 m/s 748 mmHg 93%
05:00 +18°C° 0 mm 2 m/s 748 mmHg 93%
06:00 +19°C° 0 mm 2 m/s 749 mmHg 84%
07:00 +21°C° 0 mm 2 m/s 749 mmHg 75%
08:00 +24°C° 0 mm 1 m/s 749 mmHg 67%
09:00 +26°C° 0 mm 2 m/s 749 mmHg 58%
10:00 +27°C° 0 mm 2 m/s 749 mmHg 49%
11:00 +29°C° 0 mm 2 m/s 749 mmHg 40%
12:00 +29°C° 0 mm 2 m/s 748 mmHg 38%
13:00 +30°C° 0 mm 2 m/s 748 mmHg 36%
14:00 +31°C° 0 mm 3 m/s 748 mmHg 35%
15:00 +30°C° 0 mm 2 m/s 747 mmHg 37%
16:00 +30°C° 0 mm 2 m/s 747 mmHg 39%
17:00 +29°C° 0 mm 2 m/s 747 mmHg 42%
18:00 +27°C° 0 mm 2 m/s 747 mmHg 47%
19:00 +26°C° 0 mm 1 m/s 747 mmHg 52%
20:00 +24°C° 0 mm 1 m/s 746 mmHg 57%
21:00 +23°C° 0 mm 2 m/s 746 mmHg 60%
22:00 +21°C° 0 mm 2 m/s 746 mmHg 62%
23:00 +21°C° 0 mm 3 m/s 746 mmHg 64%

31 Iulie, Sâmbătă

Timp Temperatura Precipitaţii Vânt Presiune Umiditate
00:00 +20°C° 0 mm 3 m/s 746 mmHg 66%
01:00 +20°C° 0 mm 3 m/s 746 mmHg 67%
02:00 +20°C° 0 mm 3 m/s 746 mmHg 69%
03:00 +20°C° 0 mm 3 m/s 745 mmHg 71%
04:00 +19°C° 0 mm 3 m/s 745 mmHg 73%
05:00 +19°C° 0 mm 3 m/s 745 mmHg 75%
06:00 +20°C° 0.2 mm 2 m/s 745 mmHg 78%
07:00 +20°C° 0.2 mm 2 m/s 745 mmHg 81%
08:00 +21°C° 0.2 mm 2 m/s 745 mmHg 84%
09:00 +21°C° 0 mm 2 m/s 745 mmHg 84%
10:00 +21°C° 0 mm 2 m/s 746 mmHg 84%
11:00 +22°C° 0 mm 3 m/s 746 mmHg 84%
12:00 +21°C° 0.5 mm 2 m/s 746 mmHg 86%
13:00 +21°C° 0.5 mm 2 m/s 746 mmHg 87%
14:00 +22°C° 0.5 mm 1 m/s 746 mmHg 89%
15:00 +23°C° 0 mm 1 m/s 746 mmHg 79%
16:00 +25°C° 0 mm 2 m/s 746 mmHg 70%
17:00 +27°C° 0 mm 2 m/s 746 mmHg 60%
18:00 +25°C° 0 mm 2 m/s 746 mmHg 65%
19:00 +24°C° 0 mm 2 m/s 746 mmHg 70%
20:00 +21°C° 0 mm 2 m/s 746 mmHg 75%
21:00 +22°C° 0 mm 1 m/s 746 mmHg 77%
22:00 +21°C° 0 mm 1 m/s 746 mmHg 79%
23:00 +20°C° 0 mm 1 m/s 746 mmHg 81%
Arată mai mult

Formular de consimțământ

Meteoprog și furnizorii noștri de servicii pot stoca și accesa date personale, precum cookies, identificatori de dispozitiv sau alte tehnologii similare pe dispozitivul dumneavoastră și procesa astfel de date pentru a personaliza conținutul și reclamele, dar și pentru a oferi caracteristici de social media și pentru a analiza traficul.

  • Stocarea și/sau accesarea informațiilor pe dispozitivul dumneavoastră

    Cookies, identificatori de dispozitiv sau alte informații pot fi stocate sau accesate pe dispozitiv în scopurile indicate mai sus.

  • Reclame și conținut personalizat, evaluarea reclamelor și a conținutului, informații despre audiențe și dezvoltarea produselor

    Reclamele și conținutul pot fi personalizate pe baza unui profil. Pot fi adăugate date suplimentare pentru a personaliza mai bine reclamele și conținutul. Performanța reclamelor și conținutului poate fi măsurată. Pot fi obținute informații despre utilizatorii care au văzut reclamele și conținutul. Aceste date pot fi utilizate pentru a dezvolta sau îmbunătăți experiența utilizatorilor, sistemele și software-ul.

Dând clic pe ‘Sunt de acord’, permiteți utilizarea cookie-urilor menționate, a identificatorilor de dispozitiv, balizelor web sau altor tehnologii similare. Setările pot fi modificate din browser-ul dispozitivului dumneavoastră.

În anumite scopuri, interesele legitime pot prima asupra consimțământului. Puteți citi mai multe informații în acest sens în Politica privind Confidențialitatea Datelor și Cookie.